Location: Unspecified
(0.0000°N, 0.0000°E)
Time: 11:46:06
(UTC+00:00)

Vanguard 2 - Pass Details

Date: 28 November 2019
Orbit: 553 x 2938 km, 32.9° (Epoch: 07 December)

Event Time Altitude Azimuth Distance (km) Brightness Sun altitude
Exits shadow 04:28:18 22° 285° (WNW) 4,805 10.9 -18.5°
Maximum altitude 04:37:26 33° 327° (NNW) 3,962 10.7 -16.4°
Drops below altitude 10° 04:50:18 10° 27° (NNE) 4,856 11.7 -13.4°
Sets 04:54:14 0° 37° (NE) 5,542 12.1 -12.5°
